This is the latest recevied weather packets stored in our database for station/object W4CPD. If no packets are shown the sender has not sent any weather packets the latest 10 day(s).
| Time | Temp. | Humidity | Pressure | Rain* | Wind** | Luminosity | Snow |
|---|---|---|---|---|---|---|---|
| 1777694715 | 12.78° C | 98% | 1013.4 hPa | 1.02 mm | - | - | - |
| 1777694445 | 12.78° C | 98% | 1013.6 hPa | 1.02 mm | - | - | - |
| 1777693215 | 12.78° C | 98% | 1015.2 hPa | 1.02 mm | - | - | - |
| 1777692633 | 12.78° C | 98% | 1014.5 hPa | 1.02 mm | - | - | - |
| 1777690219 | 12.78° C | 97% | 1015.4 hPa | 0.76 mm | - | - | - |
| 1777689931 | 12.78° C | 97% | 1014.7 hPa | 1.02 mm | - | - | - |
| 1777689616 | 12.78° C | 97% | 1014.9 hPa | 1.02 mm | - | - | - |
| 1777688414 | 12.78° C | 97% | 1013.5 hPa | 1.02 mm | - | - | - |
| 1777688129 | 12.78° C | 97% | 1013.1 hPa | 0.76 mm | - | - | - |
| 1777687814 | 12.78° C | 97% | 1013.2 hPa | 1.02 mm | - | - | - |
| 1777687514 | 12.78° C | 97% | 1013.1 hPa | 1.02 mm | - | - | - |
| 1777682731 | 13.89° C | 97% | 1013.3 hPa | 1.27 mm | - | - | - |
| 1777680937 | 14.44° C | 96% | 1012.2 hPa | 1.02 mm | - | - | - |
| 1777677618 | 15.56° C | 94% | 1011.6 hPa | 1.02 mm | - | - | - |
| 1777676461 | 16.67° C | 94% | 1012.3 hPa | 1.02 mm | - | - | - |
| 1777675528 | 16.67° C | 95% | 1012.2 hPa | 1.02 mm | - | - | - |
| 1777675214 | 17.22° C | 95% | 1012 hPa | 1.02 mm | - | - | - |
| 1777674316 | 17.22° C | 94% | 1012.1 hPa | 0.76 mm | - | - | - |
| 1777673729 | 17.78° C | 94% | 1012.1 hPa | 0.51 mm | - | - | - |
| 1777672827 | 17.78° C | 92% | 1012 hPa | 0.25 mm | - | - | - |
| 1777672213 | 17.78° C | 91% | 1012 hPa | 0 mm | - | - | - |
| 1777671613 | 18.33° C | 90% | 1012.1 hPa | 0 mm | - | - | - |
| 1777671313 | 18.33° C | 90% | 1011.9 hPa | 0 mm | - | - | - |
| 1777669518 | 18.33° C | 91% | 1011.7 hPa | 0 mm | - | - | - |
| 1777667712 | 18.33° C | 89% | 1011.8 hPa | 0 mm | - | - | - |
* Rain latest hour (hover to see other rain measurements)
** Current wind speed in m/s (hover to see current wind gust speed)